Lid_Strength_Index
12 11 11 12 12 12 13 12 15 12 12 10 8 7 7 8 9 10 10 9 9 9 9 9 8 8 8 7 6 5 5 5 5 6 6 7 9 10 12 13 13 14 14 13
14 12 12 13 11 11 12 11 11 11 11 7 8 9 9 9 10 10 9 9 9 9 9 9 8 8 8 8 8 7 6 6 6 9 11 11 11 12 13 15 15 14 14 14
16 13 13 15 13 12 11 10 11 13 10 7 9 9 7 7 8 9 9 8 8 8 8 8 8 8 9 8 9 8 8 10 11 11 12 12 13 14 14 16 15 15 14 13
16 15 19 12 11 9 10 10 9 9 8 8 7 7 7 6 6 7 8 8 8 7 8 8 8 9 8 10 11 11 10 11 12 13 13 14 14 15 17 16 16 16 15 13
16 16 13 12 12 12 12 11 9 9 8 8 7 7 8 7 7 7 6 7 8 7 8 8 8 8 10 11 12 12 13 12 12 12 14 15 15 15 15 16 17 15 16 14
16 17 19 13 11 10 9 14 8 8 8 8 8 12 9 6 8 8 7 8 8 7 8 9 8 8 10 11 12 12 13 13 13 14 14 14 15 15 16 16 15 17 15 14
15 16 14 11 11 10 14 12 10 9 8 8 10 8 8 8 9 9 8 8 8 8 8 9 9 11 11 11 12 11 12 13 13 13 13 13 15 15 15 16 16 15 16 16
14 16 17 11 12 11 9 10 9 9 10 10 9 10 10 10 10 10 10 10 9 9 9 9 11 11 12 12 12 13 14 14 14 13 14 15 15 16 15 15 16 16 16 16
12 13 9 10 9 9 9 9 9 9 9 10 10 10 10 10 10 11 11 11 11 11 11 11 12 11 12 12 13 14 14 14 14 14 14 15 16 16 16 15 16 17 17 18
12 12 10 11 11 10 10 10 10 10 10 10 10 10 10 11 11 12 13 13 13 12 12 12 13 13 12 13 13 14 14 14 15 15 16 15 15 15 15 16 16 17 17 18
12 12 12 11 11 10 10 10 10 10 11 11 10 11 11 12 13 13 14 14 14 14 14 14 14 13 13 14 14 14 13 14 14 14 15 15 15 15 16 15 15 17 16 17
11 11 10 11 10 10 10 11 11 11 11 13 12 12 12 14 14 14 15 15 14 15 15 15 15 15 14 14 13 14 15 16 15 16 16 16 17 17 16 16 15 15 15 15
12 11 12 12 12 11 11 12 13 13 13 14 15 14 14 15 16 16 16 16 17 17 17 17 16 16 16 15 14 15 15 16 16 17 17 18 18 18 19 17 16 16 15 16
15 12 13 13 14 13 13 14 15 16 16 16 16 16 16 17 17 18 19 19 18 18 18 18 18 19 19 16 15 15 15 16 16 17 17 17 17 17 18 19 19 18 16 16
18 15 14 15 15 16 15 15 17 17 17 17 17 18 18 18 20 20 21 21 19 19 20 20 20 20 19 18 16 16 16 17 17 17 17 17 17 18 18 19 18 19 21 18
21 19 18 19 20 20 19 19 18 19 19 19 19 19 19 19 20 21 22 22 20 22 23 22 21 23 21 18 17 17 17 17 17 17 17 18 18 18 18 18 18 19 21 20
19 21 22 22 22 24 25 25 23 23 22 23 23 21 21 20 21 22 23 24 23 24 25 25 25 24 22 20 18 17 17 18 18 17 17 17 17 17 17 17 17 18 18 19
26 26 26 26 25 25 26 27 27 27 27 26 24 24 24 25 25 25 25 23 22 24 27 27 25 25 24 22 20 19 18 19 18 18 19 19 18 18 19 18 19 19 20 20
29 29 29 29 29 29 30 30 30 29 29 28 26 27 27 28 27 26 25 27 27 24 27 28 24 25 24 22 22 20 20 20 20 20 19 20 19 19 19 20 20 20 20 21
31 30 30 30 31 32 32 32 31 31 31 30 29 28 28 30 30 27 26 29 31 31 30 28 27 25 25 25 24 21 21 20 20 20 20 20 20 20 21 22 21 21 21 21
33 32 32 31 32 33 34 34 33 32 32 32 31 32 31 31 30 29 26 25 29 31 30 28 28 26 25 25 23 23 22 22 22 21 21 21 21 21 21 21 21 21 21 21
34 34 33 32 32 32 33 34 34 33 33 33 33 32 30 30 30 30 33 31 30 30 29 27 26 26 26 26 25 24 24 23 23 22 22 22 21 21 21 21 21 21 20 20
33 33 32 33 33 33 32 34 34 34 34 35 35 34 32 31 31 29 27 29 30 28 27 26 27 25 26 26 26 26 25 25 25 24 24 23 23 22 22 21 21 21 21 21
33 33 33 32 32 32 32 33 33 33 34 35 35 36 34 30 29 30 30 30 30 29 28 25 24 24 28 26 26 26 26 25 25 24 23 25 23 23 22 22 22 21 21 21
34 34 33 33 32 33 34 34 32 31 32 31 31 31 33 32 31 29 29 28 27 27 26 26 23 24 25 25 25 24 24 24 23 23 23 23 23 23 22 22 22 22 21 21
33 33 33 33 33 33 33 32 32 31 31 31 29 29 29 28 28 28 27 28 26 26 25 25 24 24 24 24 24 24 23 23 23 23 23 23 22 22 22 22 22 21 21 21
32 31 31 30 30 31 31 31 31 30 29 30 30 28 28 27 27 27 27 26 25 25 25 25 24 24 24 24 23 23 23 23 23 22 22 21 21 21 21 21 20 20 19 19